Weather History for KILM - January, 2013

Change the Weather History Date:

Saturday, January 12, 2013

  Actual Average Record
Temperature  
Mean Temperature 67 °F 46 °F  
Max Temperature 78 °F 56 °F 78 °F (2013)
Min Temperature 56 °F 35 °F 12 °F (1981)
Degree Days  
Heating Degree Days 0 19  
Month to date heating degree days 177 228  
Since 1 July heating degree days 1055 1112  
Cooling Degree Days 2 0  
Month to date cooling degree days 2 0  
Year to date cooling degree days 2 0  
Growing Degree Days 16 (Base 50)    
Moisture  
Dew Point 59 °F    
Average Humidity 76    
Maximum Humidity 100    
Minimum Humidity 52    
Precipitation  
Precipitation 0.00 in 0.12 in 1.85 in (1964)
Month to date precipitation 0.61 1.44  
Year to date precipitation 0.61 1.44  
Snow  
Snow 0.00 in 0.00 in 1.00 in (1962)
Month to date snowfall 0.0 0.2  
Since 1 July snowfall 0.0 1.0  
Snow Depth 0.00 in    
Sea Level Pressure  
Sea Level Pressure 30.15 in    
Wind  
Wind Speed 5 mph (WSW)    
Max Wind Speed 13 mph    
Max Gust Speed 16 mph    
Visibility 6 miles    
Events Fog    
T = Trace of Precipitation, MM = Missing Value Source: NWS Daily Summary

Daily Weather History Graph

Daily Weather History Graph

Search for Another Location

Airport or City:

Trip Planner

Search our weather history database for the weather conditions in past years. The results will help you decide how hot, cold, wet, or windy it might be!

Date:

Astronomy

Jan. 12, 2013 Rise Set
Actual Time 7:18 AM EST 5:22 PM EST
Civil Twilight 6:50 AM EST 5:49 PM EST
Nautical Twilight 6:19 AM EST 6:20 PM EST
Astronomical Twilight 5:49 AM EST 6:50 PM EST
Moon 7:39 AM EST (1/12) 6:43 PM EST (1/12)
Length of Visible Light 10h 59m
Length of Day
10h 04m
New Moon, 1% of the Moon is Illuminated
Jan 12
New Moon
Jan 18
First Quarter
Jan 26
Full
Feb 3
Last Quarter
Feb 10
New

Hourly Weather History & Observations

Time (EST) Temp. Dew Point Humidity Pressure Visibility Wind Dir Wind Speed Gust Speed Precip Events Conditions
12:53 AM 63.0 °F 61.0 °F 93% 30.17 in 10.0 mi SSW 6.9 mph - N/A   Clear
1:53 AM 63.0 °F 61.0 °F 93% 30.16 in 10.0 mi SW 9.2 mph - N/A   Partly Cloudy
2:53 AM 62.6 °F 60.8 °F 94% 30.16 in 10.0 mi West 3.5 mph - N/A   Clear
3:53 AM 61.0 °F 59.0 °F 93% 30.16 in 10.0 mi Calm Calm - N/A   Clear
4:02 AM 59.0 °F 57.2 °F 94% 30.16 in 1.8 mi Calm Calm - N/A   Clear
4:05 AM 57.2 °F 57.2 °F 100% 30.16 in 1.0 mi Calm Calm - N/A   Mist
4:12 AM 59.0 °F 57.2 °F 94% 30.16 in 0.8 mi Calm Calm - N/A   Mist
4:17 AM 57.2 °F 57.2 °F 100% 30.16 in 1.2 mi Calm Calm - N/A   Partly Cloudy
4:33 AM 59.0 °F 57.2 °F 94% 30.15 in 2.0 mi Calm Calm - N/A   Partly Cloudy
4:48 AM 57.2 °F 55.4 °F 94% 30.15 in 1.2 mi Calm Calm - N/A   Clear
4:53 AM 57.0 °F 55.9 °F 96% 30.15 in 1.2 mi Calm Calm - N/A   Clear
5:01 AM 57.2 °F 55.4 °F 94% 30.15 in 2.0 mi SW 3.5 mph - N/A   Clear
5:10 AM 57.2 °F 57.2 °F 100% 30.15 in 8.0 mi SW 3.5 mph - N/A   Clear
5:26 AM 57.2 °F 55.4 °F 94% 30.15 in 2.5 mi SW 4.6 mph - N/A   Clear
5:35 AM 59.0 °F 57.2 °F 94% 30.15 in 8.0 mi SW 4.6 mph - N/A   Clear
5:53 AM 57.9 °F 57.0 °F 97% 30.16 in 4.0 mi Calm Calm - N/A   Partly Cloudy
5:57 AM 57.2 °F 57.2 °F 100% 30.16 in 1.8 mi West 3.5 mph - N/A   Partly Cloudy
5:59 AM 57.2 °F 57.2 °F 100% 30.16 in 0.8 mi West 3.5 mph - N/A   Mist
6:11 AM 57.2 °F 57.2 °F 100% 30.16 in 1.0 mi Calm Calm - N/A   Partly Cloudy
6:15 AM 59.0 °F 57.2 °F 94% 30.16 in 0.5 mi Calm Calm - N/A Fog Fog
6:51 AM 57.2 °F 55.4 °F 94% 30.16 in 0.5 mi SW 4.6 mph - N/A Fog Fog
6:53 AM 57.9 °F 57.0 °F 97% 30.17 in 0.5 mi SW 4.6 mph - N/A Fog Fog
6:59 AM 60.8 °F 57.2 °F 88% 30.16 in 1.5 mi SW 3.5 mph - N/A   Clear
7:02 AM 59.0 °F 57.2 °F 94% 30.16 in 3.0 mi SW 4.6 mph - N/A   Clear
7:35 AM 59.0 °F 57.2 °F 94% 30.17 in 1.8 mi Calm Calm - N/A   Clear
7:45 AM 59.0 °F 57.2 °F 94% 30.17 in 3.0 mi SW 3.5 mph - N/A   Clear
7:53 AM 59.0 °F 57.9 °F 96% 30.18 in 4.0 mi SW 3.5 mph - N/A   Clear
8:53 AM 64.0 °F 61.0 °F 90% 30.18 in 10.0 mi WSW 6.9 mph - N/A   Clear
9:53 AM 70.0 °F 63.0 °F 78% 30.19 in 10.0 mi West 10.4 mph - N/A   Partly Cloudy
10:53 AM 72.0 °F 63.0 °F 73% 30.17 in 10.0 mi West 8.1 mph - N/A   Mostly Cloudy
11:53 AM 73.9 °F 62.1 °F 66% 30.15 in 10.0 mi West 10.4 mph - N/A   Mostly Cloudy
12:53 PM 75.0 °F 63.0 °F 66% 30.13 in 10.0 mi WNW 5.8 mph - N/A   Mostly Cloudy
1:53 PM 75.0 °F 62.1 °F 64% 30.12 in 10.0 mi WSW 9.2 mph - N/A   Clear
2:53 PM 77.0 °F 61.0 °F 58% 30.11 in 10.0 mi WSW 12.7 mph - N/A   Clear
3:53 PM 78.1 °F 59.0 °F 52% 30.11 in 10.0 mi West 8.1 mph - N/A   Clear
4:53 PM 75.9 °F 60.1 °F 58% 30.12 in 10.0 mi West 3.5 mph - N/A   Clear
5:53 PM 66.9 °F 61.0 °F 81% 30.12 in 10.0 mi Calm Calm - N/A   Clear
6:53 PM 68.0 °F 61.0 °F 78% 30.13 in 10.0 mi Calm Calm - N/A   Clear
7:53 PM 64.4 °F 60.8 °F 88% 30.12 in 10.0 mi Calm Calm - N/A   Clear
8:53 PM 61.0 °F 59.0 °F 93% 30.12 in 10.0 mi Calm Calm - N/A   Clear
9:53 PM 63.0 °F 59.0 °F 87% 30.12 in 10.0 mi Calm Calm - N/A   Clear
10:53 PM 62.1 °F 57.9 °F 86% 30.12 in 10.0 mi SSW 3.5 mph - N/A   Clear
11:53 PM 61.0 °F 57.0 °F 87% 30.13 in 10.0 mi SW 3.5 mph - N/A   Clear